Flag for Germany Weather past 2 weeks in Brühl (Rhineland), North Rhine-Westphalia, Germany

Now
50 °F

Passing clouds.


Feels Like: 50 °F
Forecast: 45 / 61 °F
Wind: 1 mph from Southeast

Location: Noervenich

Current Time: Sep 23, 2014 at 11:05:35 PM

Latest Report: Sep 23, 2014 at 10:00 PM


Visibility: 13 mi

Pressure: 30.09 "Hg

Humidity: 85%

Dew point: 46 °F

Location of Brühl (Rhineland)Location

Historic Weather in Brühl (Rhineland) — Graph

°F

Brühl (Rhineland) temperature yesterday

Maximum temperature yesterday: 59 °F (at 1:00 PM)
Minimum temperature yesterday: 53 °F (at 6:00 AM)
Average temperature yesterday: 55 °F

Past Weeks' High & Low Weather Summary

 TemperatureHumidityPressure
High77 °F (Sep 17, 4:00 PM)98% (Sep 17, 6:00 AM)30.25 "Hg (Sep 17, 6:00 AM)
Low45 °F (Sep 23, 6:00 AM)49% (Sep 23, 6:00 PM)29.81 "Hg (Sep 18, 6:00 PM)
Average60 °F81%30.05 "Hg
* Reported Sep 8 9:00 PM — Sep 23 9:00 PM, Brühl (Rhineland), Weather by CustomWeather, © 2014

Note: Actual official high and low records may vary slightly from our data, if they occured in-between our weather recording intervals... More about our weather records

Advertising

Brühl (Rhineland) weather history for previous 24 hours

 ConditionsComfort  
Time TempWeatherWind HumidityBarometerVisibility
9:00 PM
Sep 23
50 °FPassing clouds.1 mph84%30.10 "Hg16 mi
8:00 PM52 °FPassing clouds.No wind79%30.11 "Hg16 mi
7:00 PM57 °FPassing clouds.No wind69%30.10 "Hg16 mi
6:00 PM60 °FPassing clouds.N/A49%30.10 "Hg16 mi
4:00 PM60 °FPassing clouds.1 mph52%30.13 "Hg19 mi
3:00 PM59 °FPassing clouds.1 mph51%30.16 "Hg19 mi
2:00 PM60 °FPassing clouds.N/A51%30.17 "Hg19 mi
1:00 PM58 °FScattered clouds.1 mph57%30.19 "Hg19 mi
12:00 PM57 °FPassing clouds.1 mph75%30.19 "Hg16 mi
10:00 AM49 °FPartly sunny.1 mph86%30.22 "Hg9 mi
9:00 AM47 °FScattered clouds.No wind90%30.21 "Hg9 mi
8:00 AM45 °FScattered clouds.No wind91%30.21 "Hg9 mi
7:00 AM46 °FPassing clouds.N/A89%30.20 "Hg12 mi
6:00 AM45 °FPassing clouds.3 mph92%30.19 "Hg16 mi
4:00 AM46 °FPassing clouds.2 mph90%30.19 "Hg16 mi
3:00 AM47 °FPassing clouds.3 mph90%30.21 "Hg16 mi
1:00 AM48 °FPassing clouds.2 mph87%30.22 "Hg16 mi
12:00 AM50 °FClear.2 mph83%30.20 "Hg16 mi
Weather by CustomWeather, © 2014

See weather overviewHow to use our weather pages